Location: Saint-Maurice-d�Ard�che
(44.5216°N, 4.4002°E)
Time: 12:23:11
(UTC+00:00)

Cosmos 1758 Rocket - Pass Details

Date: 30 March 2020
Orbit: 603 x 635 km, 82.5° (Epoch: 05 June)

Event Time Altitude Azimuth Distance (km) Brightness Sun altitude
Rises 19:40:34 0° 357° (N) 2,896 7.4 -16.7°
Reaches altitude 10° 19:42:54 10° 4° (N) 1,981 6.4 -17.1°
Maximum altitude 19:47:05 43° 77° (ENE) 866 3.9 -17.8°
Enters shadow 19:47:56 38° 108° (ESE) 936 3.9 -17.9°
